Temperature
16 16 16 16 16 16 15 15 15 15 15 15 15 16 15 15 15 15 15 15 15 15 15 15 15 15 15 15 15 15 15 15 15 15 15 15 15 15
16 16 16 15 15 15 15 15 15 15 14 15 15 15 15 15 15 15 15 15 15 15 15 15 15 15 15 15 15 15 15 15 15 15 15 15 15 15
15 15 15 15 15 15 15 15 15 15 14 14 15 15 15 15 15 15 15 14 14 14 14 15 15 15 15 15 15 14 15 15 15 15 15 15 15 15
15 15 15 15 15 15 15 15 14 14 14 14 14 14 14 14 14 14 14 14 14 14 14 14 14 14 14 14 14 14 14 14 14 14 14 14 14 14
15 15 15 15 14 14 14 14 14 14 14 14 14 14 14 14 14 14 14 14 14 14 14 14 14 14 14 14 14 14 14 14 14 14 14 14 14 14
14 14 14 14 14 14 14 14 14 14 14 14 14 14 14 14 14 13 14 14 14 14 14 14 14 13 13 13 13 13 13 13 13 14 14 14 14 14
14 14 14 14 14 14 14 14 13 13 13 13 13 13 13 13 13 13 13 13 13 13 13 13 13 13 13 13 13 13 13 13 13 13 13 13 13 13
14 14 14 14 14 14 13 13 13 13 13 13 13 13 13 13 13 12 12 12 12 13 13 13 13 13 13 13 13 13 13 13 13 13 13 13 13 13
14 14 13 13 13 13 13 13 13 13 13 13 12 13 12 12 12 12 12 12 12 12 12 12 13 13 13 13 13 13 13 13 13 13 13 13 13 13
13 13 13 13 13 13 13 13 13 13 13 12 12 12 12 12 12 12 12 12 12 12 12 12 12 12 12 12 12 12 12 12 12 13 12 13 13 13
13 13 13 13 13 13 13 13 13 13 12 12 12 12 12 12 12 12 12 11 11 12 12 11 12 12 12 12 12 12 12 12 12 12 12 12 12 12
13 13 13 13 12 12 12 12 12 12 12 12 12 12 12 12 12 12 11 11 11 11 11 11 11 11 11 12 12 12 12 12 12 12 12 12 12 12
12 12 12 12 12 12 12 12 12 12 12 12 12 12 12 12 11 11 11 11 11 11 11 11 11 11 10 11 11 11 11 11 11 11 11 11 11 12
12 12 12 12 12 12 12 12 11 11 11 11 11 11 11 11 11 11 11 11 11 11 11 11 10 10 10 10 10 11 11 11 11 11 11 11 11 11
12 12 12 12 12 12 11 11 11 11 11 11 11 11 11 11 11 11 11 11 11 11 11 10 10 10 10 10 10 10 10 11 11 10 11 11 11 11
11 11 11 11 11 11 11 11 11 10 10 10 10 10 11 11 11 11 11 10 10 11 10 10 10 10 10 10 10 10 10 10 10 10 10 10 10 10
11 11 11 11 11 11 10 10 10 10 10 10 10 10 10 10 10 10 10 10 10 10 10 10 10 10 10 10 10 10 10 10 10 10 10 10 10 10
11 11 10 10 10 10 10 10 10 10 10 9 9 9 9 9 9 10 10 10 10 10 10 10 10 9 9 9 9 9 9 10 10 10 10 10 10 10
10 10 10 10 10 10 10 10 9 9 9 9 9 9 9 9 9 9 9 9 9 9 9 9 9 9 9 9 9 9 9 9 9 9 9 9 9 10
10 10 10 10 10 9 9 9 9 9 9 9 9 9 9 9 9 9 9 9 9 9 9 9 9 9 9 9 9 9 9 9 9 9 9 9 9 9
10 9 9 9 9 9 9 9 9 9 9 9 9 8 8 8 9 9 9 9 9 9 9 9 9 9 9 9 9 9 9 9 9 9 9 9 9 9
9 9 9 9 9 9 9 9 9 9 8 8 8 8 8 8 8 8 8 8 8 8 9 9 9 9 8 8 8 9 9 9 9 9 9 9 9 9
9 9 9 9 9 9 9 8 8 8 8 8 8 8 8 8 8 8 8 8 8 8 8 8 8 8 8 8 8 8 8 9 9 8 8 8 9 9
Wind_Speed
1 1 2 2 2 2 2 3 3 2 3 2 2 2 2 3 4 3 3 4 5 5 6 7 7 7 7 7 7 8 7 8 8 8 8 8 9 9
1 1 2 2 2 2 2 2 3 3 3 2 3 2 2 3 3 3 3 4 4 5 6 7 7 8 8 8 8 9 8 8 8 8 8 8 8 8
2 2 3 2 2 2 2 2 3 3 4 4 2 2 2 3 3 3 3 3 4 5 6 6 7 7 8 8 8 9 9 9 9 9 9 9 8 8
2 2 3 2 3 2 2 3 3 4 4 5 3 2 2 3 3 3 3 3 4 5 5 5 5 6 7 7 8 9 9 9 9 9 9 8 8 8
3 3 3 3 3 3 3 3 3 3 3 4 4 2 2 2 2 3 3 3 4 4 4 5 5 6 6 7 8 9 9 9 9 9 8 7 8 8
3 3 3 3 4 4 3 3 3 3 3 3 3 3 2 2 2 2 3 3 3 3 4 4 5 6 6 7 7 8 8 8 8 8 8 8 8 8
2 3 3 3 3 3 3 3 2 2 2 2 3 3 3 2 3 2 3 4 4 3 2 3 3 3 4 6 6 7 8 8 8 8 8 9 9 9
3 3 3 3 4 4 4 4 3 3 3 3 3 4 5 4 3 3 3 3 3 2 2 3 2 4 4 4 6 7 7 7 8 8 8 9 9 10
3 3 3 3 3 3 4 4 4 4 4 4 5 5 5 4 4 4 4 4 5 3 2 4 3 4 4 5 6 7 7 6 7 7 8 8 9 9
3 3 4 4 4 3 3 3 4 4 5 4 5 6 6 5 5 5 5 4 4 3 3 4 4 4 4 5 5 6 7 6 6 7 7 7 8 9
4 4 4 4 5 3 2 3 5 5 5 5 5 6 6 6 4 3 3 3 4 4 3 3 3 3 3 4 4 5 6 6 6 6 7 7 7 6
3 3 4 4 5 4 3 3 5 6 5 5 4 4 4 3 4 4 4 4 3 3 2 3 2 2 3 2 3 3 4 5 6 6 6 6 5 4
3 3 4 5 5 5 5 4 6 5 4 4 4 4 4 3 3 3 4 4 4 4 3 3 3 3 3 3 3 3 3 3 4 4 5 5 6 5
3 4 4 5 5 5 4 4 4 3 2 3 3 4 4 4 4 4 5 5 6 6 5 4 4 4 4 4 4 3 3 3 3 3 3 3 4 6
4 5 5 5 4 3 3 3 3 2 3 3 4 5 5 5 4 4 4 3 4 5 5 6 5 5 5 5 4 4 3 3 3 3 2 2 2 3
3 4 4 4 3 3 3 2 2 2 3 4 5 5 4 4 3 3 3 3 3 4 4 5 5 6 5 6 5 5 4 3 2 3 3 3 3 4
2 2 2 2 3 3 3 3 3 3 3 4 4 5 4 4 4 3 3 3 3 4 4 3 3 4 5 5 5 6 5 4 4 3 3 3 3 4
0 2 2 3 3 4 4 4 4 4 4 4 4 4 5 5 5 4 3 4 4 5 5 4 3 2 3 4 6 6 5 5 4 4 3 3 4 3
1 2 3 4 4 4 4 4 4 4 4 4 4 4 5 5 4 5 4 4 4 5 5 4 4 4 5 6 4 6 5 4 3 3 4 4 4 4
2 3 4 4 4 4 4 4 4 4 3 4 4 4 4 4 5 5 5 5 5 5 5 4 4 5 6 6 4 3 6 6 5 5 4 3 3 3
3 4 4 4 4 4 4 4 4 3 4 4 4 4 4 4 5 5 5 6 5 5 6 6 6 6 4 3 3 3 3 6 7 5 4 3 3 3
4 4 4 4 4 4 4 3 3 4 4 4 4 4 4 4 5 6 5 5 5 5 6 5 4 2 3 4 4 4 4 2 3 4 5 5 3 4
4 4 4 4 4 3 3 3 4 4 4 4 3 4 4 4 5 5 5 5 5 5 5 4 3 2 3 3 4 4 4 3 2 2 2 3 5 5
Wind_Direction
260 265 268 272 248 234 224 210 210 257 280 272 271 286 284 278 285 269 262 256 252 251 255 255 252 252 250 250 254 253 252 250 249 248 247 246 244 241
250 262 271 276 272 252 235 225 216 221 253 263 260 290 293 289 294 279 268 265 261 258 260 259 255 250 245 244 248 249 246 244 245 247 247 245 242 241
275 269 278 283 277 276 248 228 226 220 246 272 263 280 273 287 297 288 282 275 275 266 268 265 261 252 246 247 247 245 244 242 243 246 246 244 240 239
265 269 281 284 280 278 262 248 240 226 229 263 276 270 267 272 278 279 287 283 278 274 269 268 263 257 252 253 250 248 247 246 245 246 246 244 240 236
252 259 271 273 278 276 266 259 255 247 234 247 269 266 272 276 286 287 289 290 285 276 264 261 263 263 260 262 258 252 249 246 245 245 245 245 242 238
255 261 265 259 261 265 262 258 258 260 254 252 264 272 277 279 269 283 295 292 287 282 277 271 266 264 263 261 256 252 247 242 239 240 241 241 240 238
274 275 272 277 282 274 275 264 255 257 263 264 270 275 278 276 271 270 278 292 281 258 266 271 266 269 276 269 256 248 244 241 240 238 236 236 237 235
271 289 289 289 297 299 294 282 259 249 251 253 266 267 270 265 264 258 263 277 282 247 248 277 262 268 273 273 265 252 244 241 242 239 236 237 238 238
253 276 293 302 298 290 298 305 294 279 253 239 250 258 260 250 246 257 253 254 262 263 248 274 271 270 272 271 263 251 246 245 245 242 240 239 238 236
257 255 268 286 290 287 289 302 297 288 275 261 249 257 259 253 237 241 255 268 273 258 223 249 260 268 278 274 260 245 238 238 243 242 241 241 238 234
276 274 270 277 290 292 283 293 301 302 295 286 273 270 267 262 245 236 243 257 277 271 223 230 254 271 277 268 267 255 242 238 243 245 244 241 233 226
294 294 284 281 288 282 265 270 283 291 299 302 300 302 290 273 249 229 232 243 262 264 218 213 242 262 277 262 265 274 263 255 247 248 244 231 211 202
278 288 290 293 287 279 264 256 262 273 282 287 294 300 302 294 280 252 235 230 242 255 232 206 234 238 251 274 279 270 259 262 253 250 241 216 196 190
262 274 283 295 294 292 280 276 281 287 287 294 296 295 295 295 293 283 258 243 240 247 243 224 232 233 244 265 274 273 257 250 240 240 229 203 201 202
272 278 293 300 299 295 295 297 299 295 291 288 285 284 283 284 289 293 281 261 260 255 245 236 235 237 239 251 259 265 271 263 235 220 215 212 218 215
293 303 309 313 316 313 317 317 305 284 272 275 283 287 295 294 287 287 289 288 280 277 260 240 231 230 240 245 245 254 251 243 242 232 222 222 222 219
299 317 327 331 332 331 327 323 324 313 291 284 286 292 297 295 291 292 280 280 267 270 278 275 255 241 241 242 248 251 250 248 238 225 214 228 239 232
309 295 294 290 289 296 302 307 309 305 300 292 288 288 290 290 291 293 284 275 278 274 272 272 264 263 260 254 231 243 246 243 239 220 214 224 248 246
254 280 283 280 280 282 283 286 290 296 296 295 295 295 291 287 285 286 288 285 285 284 279 267 245 238 253 265 253 216 230 238 229 223 224 223 236 240
263 271 277 280 280 279 281 284 287 292 293 296 296 298 301 297 290 285 282 284 284 285 286 273 251 241 245 256 263 257 222 222 222 225 225 225 237 237
270 273 275 279 281 280 278 279 282 284 288 291 294 299 303 301 299 296 293 290 282 279 281 280 270 254 251 244 251 261 256 222 215 220 215 212 225 227
270 275 277 277 274 272 273 277 284 288 289 286 295 302 302 296 296 297 297 296 291 283 280 285 288 262 232 237 246 256 264 254 216 212 215 215 215 217
261 268 272 273 271 272 272 276 282 287 288 289 293 296 299 299 298 296 294 292 291 294 299 300 293 269 252 246 248 253 256 256 227 214 255 245 218 221
Height
1519 1519 1518 1518 1517 1517 1516 1516 1516 1514 1512 1512 1513 1513 1513 1513 1513 1512 1512 1512 1513 1513 1513 1513 1513 1513 1513 1513 1513 1513 1513 1514 1514 1515 1515 1516 1516 1517
1517 1516 1516 1515 1515 1514 1514 1513 1513 1512 1510 1509 1510 1510 1510 1509 1509 1509 1508 1509 1508 1509 1509 1509 1509 1509 1509 1509 1509 1509 1509 1509 1510 1510 1511 1511 1512 1513
1514 1514 1513 1513 1512 1511 1511 1510 1510 1509 1507 1507 1507 1507 1506 1506 1506 1505 1505 1505 1504 1504 1504 1504 1504 1504 1504 1504 1505 1505 1505 1505 1505 1506 1506 1507 1507 1508
1511 1511 1510 1510 1509 1508 1508 1507 1507 1506 1505 1504 1503 1503 1503 1503 1502 1501 1501 1501 1501 1500 1500 1500 1500 1500 1500 1500 1500 1500 1500 1500 1501 1501 1502 1502 1503 1503
1508 1508 1507 1506 1506 1505 1505 1504 1504 1503 1502 1501 1500 1500 1499 1499 1498 1498 1497 1497 1497 1496 1496 1496 1496 1496 1496 1496 1496 1496 1496 1496 1496 1496 1497 1497 1498 1498
1505 1504 1504 1503 1503 1502 1502 1501 1500 1500 1499 1498 1497 1496 1495 1495 1495 1494 1493 1493 1493 1493 1492 1492 1492 1492 1492 1491 1491 1491 1491 1491 1491 1491 1492 1492 1493 1494
1502 1501 1501 1500 1500 1499 1499 1498 1497 1496 1495 1494 1493 1492 1492 1491 1491 1490 1490 1489 1489 1488 1488 1488 1488 1488 1487 1487 1487 1487 1487 1487 1487 1488 1488 1488 1488 1489
1499 1498 1498 1498 1497 1496 1496 1495 1494 1493 1492 1491 1490 1489 1488 1488 1487 1487 1486 1485 1484 1485 1484 1484 1484 1483 1483 1482 1482 1482 1482 1482 1482 1483 1483 1484 1484 1484
1496 1495 1495 1494 1494 1493 1492 1491 1490 1489 1488 1487 1486 1486 1485 1485 1484 1483 1483 1482 1481 1480 1480 1479 1479 1478 1478 1478 1478 1478 1478 1478 1478 1478 1479 1479 1480 1480
1493 1492 1491 1491 1490 1490 1488 1487 1487 1486 1485 1484 1483 1482 1482 1481 1481 1480 1479 1478 1477 1476 1476 1475 1475 1474 1474 1474 1473 1473 1473 1473 1474 1474 1474 1475 1475 1476
1489 1489 1488 1487 1487 1486 1485 1484 1483 1482 1481 1480 1479 1478 1478 1477 1477 1476 1475 1474 1472 1472 1472 1471 1470 1469 1469 1469 1469 1469 1469 1469 1469 1469 1470 1470 1471 1471
1486 1485 1485 1484 1483 1482 1481 1480 1478 1477 1477 1476 1475 1474 1474 1473 1472 1472 1470 1469 1468 1467 1467 1467 1466 1465 1464 1463 1464 1464 1464 1464 1464 1464 1465 1465 1466 1466
1482 1481 1481 1480 1479 1479 1478 1476 1475 1474 1473 1472 1471 1470 1469 1468 1467 1467 1466 1465 1464 1463 1463 1463 1462 1461 1461 1459 1459 1459 1459 1459 1459 1459 1460 1460 1461 1462
1478 1478 1477 1476 1475 1474 1473 1472 1471 1470 1469 1468 1467 1466 1465 1464 1463 1462 1461 1460 1460 1459 1459 1459 1457 1457 1456 1455 1454 1454 1454 1454 1454 1454 1455 1455 1456 1457
1476 1475 1474 1473 1472 1470 1469 1468 1467 1466 1465 1464 1462 1461 1461 1460 1459 1458 1457 1456 1455 1455 1454 1454 1453 1452 1452 1451 1450 1450 1449 1449 1449 1450 1450 1451 1451 1452
1472 1471 1471 1469 1468 1467 1465 1464 1463 1462 1461 1460 1459 1458 1457 1455 1454 1453 1452 1451 1450 1450 1450 1449 1448 1448 1447 1446 1446 1445 1445 1445 1445 1445 1446 1446 1447 1448
1469 1468 1467 1466 1464 1463 1462 1461 1459 1458 1457 1456 1455 1453 1452 1451 1450 1449 1448 1447 1446 1444 1444 1444 1443 1443 1442 1442 1441 1441 1441 1441 1441 1441 1442 1442 1443 1444
1466 1464 1463 1462 1461 1459 1458 1457 1456 1455 1454 1452 1451 1450 1448 1447 1446 1445 1444 1443 1441 1440 1439 1439 1438 1438 1438 1437 1437 1436 1436 1437 1437 1437 1438 1438 1438 1440
1462 1461 1460 1459 1457 1456 1455 1454 1453 1452 1451 1449 1448 1446 1445 1444 1442 1441 1440 1439 1437 1436 1435 1434 1434 1433 1433 1432 1432 1432 1432 1432 1433 1433 1433 1434 1435 1436
1459 1457 1456 1455 1454 1453 1452 1451 1450 1449 1447 1446 1445 1443 1441 1440 1438 1437 1436 1435 1433 1432 1431 1430 1429 1429 1428 1428 1427 1427 1428 1428 1428 1429 1429 1430 1431 1432
1455 1454 1453 1452 1451 1450 1449 1448 1447 1445 1444 1443 1441 1440 1438 1436 1435 1433 1432 1431 1430 1428 1427 1426 1425 1425 1424 1424 1423 1423 1423 1423 1424 1425 1425 1426 1427 1428
1452 1451 1450 1449 1448 1447 1446 1445 1443 1442 1440 1439 1438 1436 1435 1433 1431 1429 1428 1427 1425 1424 1423 1422 1421 1420 1420 1420 1419 1419 1419 1419 1420 1421 1422 1423 1423 1423
1449 1448 1447 1446 1444 1443 1442 1441 1440 1439 1437 1436 1434 1433 1431 1430 1428 1426 1425 1423 1422 1420 1419 1418 1417 1416 1416 1416 1416 1415 1415 1416 1416 1417 1418 1418 1420 1421